Terug naar catalogus

THEMIS D

ActiefWetenschapHEO
NORAD 30797·PAYLOAD·🇺🇸 United States

Gelanceerd Feb 17, 2007 vanaf Cape Canaveral Space Force Station

Loading…

Volgende Passages (komende 24 uur)

TLE

VersSource: Space-Track

Epoch: Sep 12, 2026, 05:27 UTC

1 30797U 07004D   26255.22743475 -.00000437  00000-0  00000-0 0  9996
2 30797   8.2039  75.3535 8306628 245.2974  25.1042  0.87844675 41844

Volg THEMIS D in realtime met AllMySat

Download on the App Store